Time,TemperatureF,DewpointF,PressureIn,WindDirection,WindDirectionDegrees,WindSpeedMPH,WindSpeedGustMPH,Humidity,HourlyPrecipIn,Conditions,Clouds,dailyrainin,SolarRadiationWatts/m^2,SoftwareType,DateUTC
2013-04-24 00:05:00,37.0,33.0,30.14,South,171,0.0,0.0,85,0.00,,,0.00,0,weatherlink.com 1.10,2013-04-24 04:05:00,
2013-04-24 00:20:00,36.4,33.0,30.14,South,171,0.0,0.0,87,0.00,,,0.00,0,weatherlink.com 1.10,2013-04-24 04:20:00,
2013-04-24 00:35:00,36.2,33.0,30.13,South,171,0.0,0.0,88,0.00,,,0.00,0,weatherlink.com 1.10,2013-04-24 04:35:00,
2013-04-24 00:50:00,35.7,33.0,30.13,South,171,0.0,0.0,88,0.00,,,0.00,0,weatherlink.com 1.10,2013-04-24 04:50:00,
2013-04-24 01:05:00,35.1,32.0,30.12,South,171,0.0,0.0,89,0.00,,,0.00,0,weatherlink.com 1.10,2013-04-24 05:05:00,
2013-04-24 01:21:00,34.8,32.0,30.11,South,171,0.0,0.0,90,0.00,,,0.00,0,weatherlink.com 1.10,2013-04-24 05:21:00,
2013-04-24 01:36:00,34.8,33.0,30.11,South,171,0.0,0.0,91,0.00,,,0.00,0,weatherlink.com 1.10,2013-04-24 05:36:00,
2013-04-24 01:51:00,34.7,32.0,30.10,South,171,0.0,1.0,91,0.00,,,0.00,0,weatherlink.com 1.10,2013-04-24 05:51:00,
2013-04-24 02:06:00,34.4,32.0,30.09,South,171,0.0,1.0,91,0.00,,,0.00,0,weatherlink.com 1.10,2013-04-24 06:06:00,
2013-04-24 02:21:00,33.8,32.0,30.09,South,171,0.0,0.0,91,0.00,,,0.00,0,weatherlink.com 1.10,2013-04-24 06:21:00,
2013-04-24 02:36:00,33.2,31.0,30.09,South,171,0.0,0.0,91,0.00,,,0.00,0,weatherlink.com 1.10,2013-04-24 06:36:00,
2013-04-24 02:51:00,32.9,31.0,30.08,South,171,0.0,0.0,92,0.00,,,0.00,0,weatherlink.com 1.10,2013-04-24 06:51:00,
2013-04-24 03:06:00,32.1,30.0,30.08,South,171,0.0,0.0,92,0.00,,,0.00,0,weatherlink.com 1.10,2013-04-24 07:06:00,
2013-04-24 03:21:00,31.9,30.0,30.08,South,171,0.0,0.0,93,0.00,,,0.00,0,weatherlink.com 1.10,2013-04-24 07:21:00,
2013-04-24 03:36:00,32.0,30.0,30.07,South,171,0.0,0.0,93,0.00,,,0.00,0,weatherlink.com 1.10,2013-04-24 07:36:00,
2013-04-24 03:51:00,31.7,30.0,30.07,South,171,0.0,1.0,93,0.00,,,0.00,0,weatherlink.com 1.10,2013-04-24 07:51:00,
2013-04-24 04:06:00,31.3,30.0,30.07,South,171,0.0,0.0,93,0.00,,,0.00,0,weatherlink.com 1.10,2013-04-24 08:06:00,
2013-04-24 04:21:00,30.9,29.0,30.06,South,171,0.0,0.0,93,0.00,,,0.00,0,weatherlink.com 1.10,2013-04-24 08:21:00,
2013-04-24 04:36:00,30.9,29.0,30.05,South,171,0.0,0.0,94,0.00,,,0.00,0,weatherlink.com 1.10,2013-04-24 08:36:00,
2013-04-24 04:51:00,30.9,29.0,30.05,South,171,0.0,0.0,94,0.00,,,0.00,0,weatherlink.com 1.10,2013-04-24 08:51:00,
2013-04-24 05:06:00,30.8,29.0,30.05,South,171,0.0,0.0,94,0.00,,,0.00,0,weatherlink.com 1.10,2013-04-24 09:06:00,
2013-04-24 05:21:00,30.8,29.0,30.04,South,171,0.0,0.0,94,0.00,,,0.00,0,weatherlink.com 1.10,2013-04-24 09:21:00,
2013-04-24 05:36:00,30.7,29.0,30.04,South,171,0.0,0.0,94,0.00,,,0.00,0,weatherlink.com 1.10,2013-04-24 09:36:00,
2013-04-24 05:51:00,30.5,29.0,30.04,South,171,0.0,0.0,94,0.00,,,0.00,0,weatherlink.com 1.10,2013-04-24 09:51:00,
2013-04-24 06:06:00,30.6,29.0,30.04,South,171,0.0,0.0,94,0.00,,,0.00,5,weatherlink.com 1.10,2013-04-24 10:06:00,
2013-04-24 06:21:00,31.0,30.0,30.04,South,171,0.0,1.0,95,0.00,,,0.00,12,weatherlink.com 1.10,2013-04-24 10:21:00,
2013-04-24 06:36:00,31.2,30.0,30.04,ESE,116,0.0,2.0,95,0.00,,,0.00,37,weatherlink.com 1.10,2013-04-24 10:36:00,
2013-04-24 06:51:00,32.2,31.0,30.04,ESE,116,0.0,0.0,95,0.00,,,0.00,54,weatherlink.com 1.10,2013-04-24 10:51:00,
2013-04-24 07:06:00,33.4,32.0,30.03,ESE,116,0.0,0.0,95,0.00,,,0.00,69,weatherlink.com 1.10,2013-04-24 11:06:00,
2013-04-24 07:21:00,34.5,33.0,30.03,SSW,209,0.0,2.0,95,0.00,,,0.00,79,weatherlink.com 1.10,2013-04-24 11:21:00,
2013-04-24 07:36:00,35.2,34.0,30.02,SSW,209,0.0,0.0,95,0.00,,,0.00,91,weatherlink.com 1.10,2013-04-24 11:36:00,
2013-04-24 07:51:00,36.1,35.0,30.02,SSW,209,0.0,0.0,95,0.00,,,0.00,111,weatherlink.com 1.10,2013-04-24 11:51:00,
2013-04-24 08:06:00,36.4,34.0,30.02,East,98,0.0,2.0,92,0.00,,,0.00,135,weatherlink.com 1.10,2013-04-24 12:06:00,
2013-04-24 08:21:00,37.9,36.0,30.01,South,182,0.0,2.0,92,0.00,,,0.00,149,weatherlink.com 1.10,2013-04-24 12:21:00,
2013-04-24 08:37:00,39.5,37.0,30.00,NE,40,2.0,4.0,91,0.00,,,0.00,193,weatherlink.com 1.10,2013-04-24 12:37:00,
2013-04-24 08:52:00,40.8,38.0,29.99,ESE,116,0.0,3.0,90,0.00,,,0.00,216,weatherlink.com 1.10,2013-04-24 12:52:00,
2013-04-24 09:07:00,42.6,39.0,29.99,ESE,111,1.0,3.0,86,0.00,,,0.00,253,weatherlink.com 1.10,2013-04-24 13:07:00,
2013-04-24 09:22:00,44.4,40.0,29.98,East,83,2.0,3.0,85,0.00,,,0.00,70,weatherlink.com 1.10,2013-04-24 13:22:00,
2013-04-24 09:37:00,46.3,40.0,29.96,SW,230,0.0,4.0,80,0.00,,,0.00,60,weatherlink.com 1.10,2013-04-24 13:37:00,
2013-04-24 09:52:00,46.9,40.0,29.96,SE,132,3.0,4.0,78,0.00,,,0.00,62,weatherlink.com 1.10,2013-04-24 13:52:00,
2013-04-24 10:07:00,47.6,41.0,29.95,East,84,1.0,7.0,78,0.00,,,0.00,62,weatherlink.com 1.10,2013-04-24 14:07:00,
2013-04-24 10:22:00,49.8,42.0,29.93,WNW,284,0.0,4.0,74,0.00,,,0.00,462,weatherlink.com 1.10,2013-04-24 14:22:00,
2013-04-24 10:37:00,51.4,42.0,29.93,ESE,113,2.0,4.0,70,0.00,,,0.00,536,weatherlink.com 1.10,2013-04-24 14:37:00,
2013-04-24 10:52:00,54.0,44.0,29.92,SSE,166,1.0,3.0,68,0.00,,,0.00,575,weatherlink.com 1.10,2013-04-24 14:52:00,
2013-04-24 11:22:00,57.3,43.0,29.90,SW,225,0.0,5.0,60,0.00,,,0.00,652,weatherlink.com 1.10,2013-04-24 15:22:00,
2013-04-24 11:37:00,58.6,43.0,29.88,SE,140,2.0,10.0,56,0.00,,,0.00,687,weatherlink.com 1.10,2013-04-24 15:37:00,
2013-04-24 11:52:00,60.9,44.0,29.87,East,96,2.0,7.0,54,0.00,,,0.00,715,weatherlink.com 1.10,2013-04-24 15:52:00,
2013-04-24 12:07:00,61.7,44.0,29.86,SSE,164,1.0,10.0,52,0.00,,,0.00,756,weatherlink.com 1.10,2013-04-24 16:07:00,
2013-04-24 12:23:00,62.0,43.0,29.85,ESE,117,2.0,8.0,50,0.00,,,0.00,642,weatherlink.com 1.10,2013-04-24 16:23:00,
2013-04-24 12:38:00,62.9,43.0,29.84,SSE,149,1.0,8.0,49,0.00,,,0.00,802,weatherlink.com 1.10,2013-04-24 16:38:00,
2013-04-24 12:53:00,64.0,43.0,29.83,ESE,121,4.0,13.0,47,0.00,,,0.00,819,weatherlink.com 1.10,2013-04-24 16:53:00,
2013-04-24 13:08:00,64.0,43.0,29.81,ESE,102,0.0,10.0,47,0.00,,,0.00,835,weatherlink.com 1.10,2013-04-24 17:08:00,
2013-04-24 13:23:00,66.1,43.0,29.80,SSW,192,3.0,8.0,44,0.00,,,0.00,856,weatherlink.com 1.10,2013-04-24 17:23:00,
2013-04-24 13:38:00,66.3,40.0,29.78,East,98,5.0,9.0,38,0.00,,,0.00,874,weatherlink.com 1.10,2013-04-24 17:38:00,
2013-04-24 13:53:00,67.3,37.0,29.76,ESE,113,4.0,8.0,33,0.00,,,0.00,872,weatherlink.com 1.10,2013-04-24 17:53:00,
2013-04-24 14:08:00,68.2,38.0,29.74,East,88,3.0,9.0,33,0.00,,,0.00,870,weatherlink.com 1.10,2013-04-24 18:08:00,
2013-04-24 14:23:00,69.7,38.0,29.73,East,86,0.0,9.0,32,0.00,,,0.00,870,weatherlink.com 1.10,2013-04-24 18:23:00,
2013-04-24 14:38:00,70.1,35.0,29.73,NE,44,1.0,9.0,28,0.00,,,0.00,865,weatherlink.com 1.10,2013-04-24 18:38:00,
2013-04-24 14:53:00,70.4,35.0,29.72,East,82,5.0,8.0,27,0.00,,,0.00,858,weatherlink.com 1.10,2013-04-24 18:53:00,
2013-04-24 15:08:00,70.5,33.0,29.71,SSE,154,2.0,8.0,25,0.00,,,0.00,694,weatherlink.com 1.10,2013-04-24 19:08:00,
2013-04-24 15:23:00,71.7,33.0,29.71,SE,136,0.0,7.0,24,0.00,,,0.00,536,weatherlink.com 1.10,2013-04-24 19:23:00,
2013-04-24 15:38:00,72.1,32.0,29.71,WSW,253,2.0,8.0,23,0.00,,,0.00,483,weatherlink.com 1.10,2013-04-24 19:38:00,
2013-04-24 15:53:00,71.5,34.0,29.70,SSE,155,1.0,10.0,25,0.00,,,0.00,513,weatherlink.com 1.10,2013-04-24 19:53:00,
2013-04-24 16:08:00,71.8,34.0,29.69,NE,38,6.0,9.0,25,0.00,,,0.00,598,weatherlink.com 1.10,2013-04-24 20:08:00,
2013-04-24 16:23:00,72.0,34.0,29.69,ENE,78,1.0,8.0,25,0.00,,,0.00,647,weatherlink.com 1.10,2013-04-24 20:23:00,
2013-04-24 16:38:00,71.7,34.0,29.69,SE,137,5.0,10.0,25,0.00,,,0.00,434,weatherlink.com 1.10,2013-04-24 20:38:00,
2013-04-24 16:53:00,71.0,36.0,29.69,SE,136,1.0,4.0,28,0.00,,,0.00,100,weatherlink.com 1.10,2013-04-24 20:53:00,
2013-04-24 17:08:00,70.6,36.0,29.68,East,101,2.0,9.0,28,0.00,,,0.00,70,weatherlink.com 1.10,2013-04-24 21:08:00,
2013-04-24 17:23:00,70.8,36.0,29.67,East,88,1.0,5.0,28,0.00,,,0.00,353,weatherlink.com 1.10,2013-04-24 21:23:00,
2013-04-24 17:38:00,71.2,36.0,29.67,SE,126,2.0,11.0,28,0.00,,,0.00,264,weatherlink.com 1.10,2013-04-24 21:38:00,
2013-04-24 17:54:00,70.8,39.0,29.67,ESE,106,4.0,9.0,31,0.00,,,0.00,90,weatherlink.com 1.10,2013-04-24 21:54:00,
2013-04-24 18:09:00,69.6,39.0,29.66,South,175,1.0,5.0,33,0.00,,,0.00,88,weatherlink.com 1.10,2013-04-24 22:09:00,
2013-04-24 18:25:00,68.9,39.0,29.66,East,85,0.0,6.0,33,0.00,,,0.00,53,weatherlink.com 1.10,2013-04-24 22:25:00,
2013-04-24 18:39:00,68.5,39.0,29.67,South,174,1.0,5.0,34,0.00,,,0.00,70,weatherlink.com 1.10,2013-04-24 22:39:00,
2013-04-24 18:54:00,67.9,39.0,29.68,South,169,0.0,4.0,35,0.00,,,0.00,0,weatherlink.com 1.10,2013-04-24 22:54:00,
2013-04-24 19:09:00,67.3,39.0,29.68,SSW,211,3.0,5.0,36,0.00,,,0.00,5,weatherlink.com 1.10,2013-04-24 23:09:00,
2013-04-24 19:24:00,66.9,39.0,29.68,WSW,244,5.0,7.0,36,0.00,,,0.00,7,weatherlink.com 1.10,2013-04-24 23:24:00,
2013-04-24 19:39:00,66.3,40.0,29.68,East,82,2.0,11.0,39,0.00,,,0.00,0,weatherlink.com 1.10,2013-04-24 23:39:00,
2013-04-24 19:54:00,66.1,41.0,29.67,SE,130,1.0,3.0,40,0.00,,,0.00,0,weatherlink.com 1.10,2013-04-24 23:54:00,
2013-04-24 20:09:00,65.8,43.0,29.67,East,95,0.0,5.0,43,0.00,,,0.00,0,weatherlink.com 1.10,2013-04-25 00:09:00,
2013-04-24 20:24:00,65.5,42.0,29.66,ESE,117,1.0,9.0,43,0.00,,,0.00,0,weatherlink.com 1.10,2013-04-25 00:24:00,
2013-04-24 20:39:00,65.2,42.0,29.65,South,179,0.0,7.0,43,0.00,,,0.00,0,weatherlink.com 1.10,2013-04-25 00:39:00,
2013-04-24 20:54:00,64.7,42.0,29.65,SSE,149,3.0,5.0,44,0.00,,,0.00,0,weatherlink.com 1.10,2013-04-25 00:54:00,
2013-04-24 21:09:00,64.3,42.0,29.65,SSW,208,0.0,5.0,44,0.00,,,0.00,0,weatherlink.com 1.10,2013-04-25 01:09:00,
2013-04-24 21:24:00,63.8,42.0,29.65,ESE,115,0.0,5.0,45,0.00,,,0.00,0,weatherlink.com 1.10,2013-04-25 01:24:00,
2013-04-24 21:39:00,63.5,42.0,29.64,SE,130,0.0,7.0,45,0.00,,,0.00,0,weatherlink.com 1.10,2013-04-25 01:39:00,
2013-04-24 21:54:00,63.0,42.0,29.62,ESE,116,0.0,5.0,46,0.00,,,0.00,0,weatherlink.com 1.10,2013-04-25 01:54:00,
2013-04-24 22:09:00,62.9,42.0,29.62,SE,127,0.0,1.0,46,0.00,,,0.00,0,weatherlink.com 1.10,2013-04-25 02:09:00,
2013-04-24 22:24:00,62.4,45.0,29.64,South,171,0.0,2.0,53,0.00,,,0.00,0,weatherlink.com 1.10,2013-04-25 02:24:00,
2013-04-24 22:39:00,59.0,49.0,29.66,ENE,78,1.0,5.0,69,0.00,,,0.00,0,weatherlink.com 1.10,2013-04-25 02:39:00,
2013-04-24 22:54:00,56.1,50.0,29.64,East,91,2.0,2.0,79,0.00,,,0.00,0,weatherlink.com 1.10,2013-04-25 02:54:00,
2013-04-24 23:24:00,54.0,50.0,29.61,East,91,0.0,1.0,85,0.00,,,0.00,0,weatherlink.com 1.10,2013-04-25 03:24:00,
2013-04-24 23:39:00,53.7,49.0,29.61,ESE,123,0.0,2.0,84,0.00,,,0.00,0,weatherlink.com 1.10,2013-04-25 03:39:00,
2013-04-24 23:54:00,53.8,49.0,29.60,SSE,168,0.0,1.0,85,0.00,,,0.00,0,weatherlink.com 1.10,2013-04-25 03:54:00,